Location: Bédeille
(43.0872°N, 1.1041°E)
Time: 03:06:19
(UTC+00:00)

Cosmos 2360 Rocket - Pass Details

Date: 03 February 2023
Orbit: 832 x 846 km, 71.0° (Epoch: 27 March)

Event Time Altitude Azimuth Distance (km) Brightness Sun altitude
Rises 19:45:20 0° 236° (SW) 3,377 6.1 -28.5°
Reaches altitude 10° 19:48:06 10° 248° (WSW) 2,449 5.4 -29.0°
Maximum altitude 19:52:54 28° 307° (NW) 1,523 4.0 -29.9°
Enters shadow 19:57:10 12° 2° (N) 2,297 4.5 -30.7°
